Location: Newark
(47.8285°N, 0.6972°W)
Time: 18:50:27
(UTC+00:00)

AO-73 - Visible Passes

Search period start: 07 December 2019 00:00
Search period end: 17 December 2019 00:00
Orbit: 582 x 663 km, 97.6° (Epoch: 06 December)

Date Brightness Start Highest point End Pass type
(mag) Time Alt. Az. Time Alt. Az. Time Alt. Az.
07 Dec ? 05:27:14 10° NE 05:30:03 17° E 05:32:50 10° SE visible
07 Dec ? 18:00:18 10° S 18:04:40 46° W 18:09:00 10° NNW visible
08 Dec ? 05:44:50 10° NE 05:48:23 25° E 05:51:52 10° SSE visible
08 Dec ? 16:42:46 10° SE 16:46:46 32° ENE 16:50:43 10° N visible
08 Dec ? 18:18:55 10° SSW 18:22:57 31° W 18:26:55 10° NNW visible
09 Dec ? 06:02:42 10° NNE 06:06:41 38° E 06:10:34 10° SSE visible
09 Dec ? 17:00:32 10° SE 17:04:51 46° ENE 17:09:06 10° N visible
09 Dec ? 18:37:50 10° SW 18:41:15 21° W 18:44:39 10° NW visible
10 Dec ? 06:20:43 10° NNE 06:24:54 60° E 06:29:00 10° S visible
10 Dec ? 17:18:28 10° SSE 17:22:57 70° ENE 17:27:23 10° N visible
10 Dec ? 18:57:12 10° WSW 18:59:37 14° W 19:02:00 10° NW visible
11 Dec ? 06:38:51 10° NNE 06:43:06 87° WNW 06:47:14 10° SSW visible
11 Dec ? 17:36:37 10° S 17:41:07 78° WSW 17:45:34 10° NNW visible
12 Dec ? 05:22:07 10° NE 05:24:37 15° E 05:27:05 10° SE visible
12 Dec ? 06:57:05 10° N 07:01:13 56° WNW 07:05:15 10° SSW visible
12 Dec ? 17:54:58 10° S 17:59:20 51° W 18:03:39 10° NNW visible
13 Dec ? 05:39:36 10° NE 05:42:58 23° E 05:46:16 10° SE visible
13 Dec ? 18:13:30 10° SSW 18:17:35 34° W 18:21:35 10° NNW visible
14 Dec ? 05:57:24 10° NNE 06:01:15 34° E 06:05:02 10° SSE visible
14 Dec ? 16:55:19 10° SE 16:59:31 42° ENE 17:03:39 10° N visible
14 Dec ? 18:32:20 10° SW 18:35:52 23° W 18:39:23 10° NW visible
15 Dec ? 06:15:23 10° NNE 06:19:29 53° E 06:23:31 10° S visible
15 Dec ? 17:13:13 10° SSE 17:17:37 63° ENE 17:21:57 10° N visible
15 Dec ? 18:51:35 10° SW 18:54:13 15° W 18:56:50 10° NW visible
16 Dec ? 06:33:29 10° NNE 06:37:41 84° ESE 06:41:48 10° SSW visible
16 Dec ? 17:31:18 10° SSE 17:35:46 86° WSW 17:40:09 10° NNW visible
